This is the latest recevied weather packets stored in our database for station/object TA2LKM-11. If no packets are shown the sender has not sent any weather packets the latest 10 day(s).
| Time | Temp. | Humidity | Pressure | Rain* | Wind** | Luminosity | Snow |
|---|---|---|---|---|---|---|---|
| 1788424782 | 35° C | 38% | 1012.7 hPa | - | - | - | - |
| 1788423881 | 34.44° C | 36% | 1013 hPa | - | - | - | - |
| 1788423738 | 33.89° C | 38% | 1012.9 hPa | - | - | - | - |
| 1788422837 | 33.89° C | 37% | 1013 hPa | - | - | - | - |
| 1788421936 | 30° C | 44% | 1013 hPa | - | - | - | - |
| 1788421036 | 31.67° C | 42% | 1013 hPa | - | - | - | - |
| 1788420134 | 30° C | 41% | 1012.9 hPa | - | - | - | - |
| 1788420046 | 30.56° C | 40% | 1012.9 hPa | - | - | - | - |
| 1788419145 | 28.89° C | 44% | 1012.9 hPa | - | - | - | - |
| 1788418244 | 28.89° C | 45% | 1013 hPa | - | - | - | - |
| 1788417343 | 35° C | 34% | 1013.6 hPa | - | - | - | - |
| 1788417252 | 33.33° C | 35% | 1013.6 hPa | - | - | - | - |
| 1788416351 | 40.56° C | 26% | 1013.9 hPa | - | - | - | - |
| 1788415451 | 34.44° C | 35% | 1013.9 hPa | - | - | - | - |
| 1788414559 | 36.11° C | 32% | 1014 hPa | - | - | - | - |
| 1788413649 | 36.11° C | 32% | 1014.1 hPa | - | - | - | - |
| 1788412748 | 38.33° C | 26% | 1014.3 hPa | - | - | - | - |
| 1788411848 | 35.56° C | 28% | 1014.2 hPa | - | - | - | - |
| 1788410947 | 33.33° C | 31% | 1014.1 hPa | - | - | - | - |
| 1788410046 | 30° C | 33% | 1013.9 hPa | - | - | - | - |
| 1788409950 | 29.44° C | 34% | 1013.9 hPa | - | - | - | - |
| 1788409862 | 30° C | 34% | 1013.8 hPa | - | - | - | - |
| 1788408961 | 26.67° C | 39% | 1013.8 hPa | - | - | - | - |
| 1788408060 | 21.67° C | 50% | 1013.5 hPa | - | - | - | - |
| 1788407161 | 19.44° C | 54% | 1013.2 hPa | - | - | - | - |
* Rain since midnight (hover to see other rain measurements)
** Current wind speed in m/s (hover to see current wind gust speed)